Wind_Speed
35 36 37 37 37 37 36 37 36 35 34 34 34 34 35 36 35 35 35 36 36 35 35 35 36 36 37 37 37 37 37 38 37 37 37 36 36 37
35 35 36 36 37 36 36 37 36 35 35 35 34 34 34 34 34 34 34 34 34 34 35 35 36 36 37 37 37 37 37 37 37 36 36 36 36 36
35 35 35 35 36 37 36 36 36 35 36 35 34 33 33 33 33 33 33 32 32 34 34 35 36 36 36 37 36 35 35 35 35 35 35 35 35 35
35 35 35 36 36 36 35 35 34 34 35 34 34 33 33 33 33 33 32 31 30 31 32 33 34 35 35 35 34 34 33 33 33 33 34 34 35 35
35 35 36 36 37 36 35 34 35 35 34 32 32 33 31 32 32 32 31 31 31 31 32 34 34 34 34 34 33 34 33 33 34 34 34 34 34 34
35 35 36 36 36 36 35 34 35 34 33 32 31 31 32 31 32 32 31 30 30 31 33 34 34 33 33 33 33 33 33 33 33 33 33 32 32 32
35 35 35 35 34 34 35 34 34 33 33 32 32 32 33 32 31 30 30 30 30 31 32 32 32 31 31 31 32 32 32 32 32 32 32 31 30 30
34 34 34 34 34 34 34 34 33 33 32 32 32 32 33 32 30 29 29 29 29 30 30 29 29 28 29 30 31 31 31 31 31 31 31 29 29 29
32 33 33 33 33 33 33 32 31 32 32 31 31 31 30 30 30 29 28 28 29 29 29 28 27 27 28 29 30 30 30 30 29 29 28 28 28 28
32 32 32 32 32 32 31 31 31 30 30 31 30 30 29 29 29 29 28 28 28 29 29 28 28 28 28 29 29 29 30 30 29 28 27 27 26 26
28 29 31 31 31 30 31 31 31 30 30 31 30 29 29 28 29 30 29 29 28 28 28 28 27 27 27 27 28 28 28 28 27 26 26 26 25 25
26 27 28 29 30 30 29 29 29 29 30 30 30 30 30 29 29 29 29 29 29 28 27 27 27 27 27 26 26 27 27 26 26 25 25 25 25 25
25 25 26 27 27 27 27 28 28 28 28 29 28 29 29 30 30 30 30 29 28 27 27 27 27 27 27 26 25 25 26 25 24 24 24 24 25 25
25 25 26 26 26 26 26 27 28 28 28 27 27 27 28 28 28 29 29 29 28 27 27 27 26 26 26 26 25 24 25 24 23 23 23 24 24 25
25 26 26 26 26 26 25 26 26 26 27 26 26 26 26 26 27 27 27 26 26 26 26 26 26 26 25 25 24 24 23 23 23 23 24 24 24 24
26 27 26 26 27 26 25 24 24 24 24 25 25 25 25 26 25 25 25 24 24 25 25 24 25 25 24 23 22 21 22 22 22 23 24 24 24 23
25 26 25 26 26 26 25 25 24 24 23 23 23 24 24 24 24 23 23 23 23 23 24 23 23 23 23 22 22 21 20 20 21 22 22 22 22 21
25 25 25 24 24 24 24 24 23 23 22 22 22 22 22 22 22 22 22 23 23 23 24 24 23 23 23 22 22 20 19 19 19 20 20 20 19 18
24 24 23 23 23 23 23 22 22 22 21 21 21 21 21 21 21 21 22 23 23 23 23 23 23 23 22 21 21 20 19 18 19 18 18 18 16 15
23 23 23 23 22 22 22 21 21 21 21 21 21 21 21 21 21 21 23 23 23 23 23 23 22 21 21 20 20 19 19 18 18 17 16 15 14 12
23 23 22 22 22 22 22 22 22 21 21 21 21 21 21 21 22 22 23 23 23 22 22 22 21 20 20 19 18 18 18 18 17 16 14 13 12 11
22 22 22 23 23 22 22 22 22 22 22 22 22 22 22 22 22 22 22 21 21 20 20 20 19 19 18 17 16 16 16 16 15 14 12 11 10 10
22 23 23 23 22 22 22 22 22 22 22 22 23 23 23 22 22 22 21 20 20 19 19 19 19 17 17 16 15 14 14 13 13 12 11 10 9 9
Wind_Direction
265 268 270 269 269 271 271 271 272 273 274 272 269 271 273 273 272 273 274 275 276 276 278 281 283 284 285 286 287 288 288 287 288 288 288 288 289 290
264 266 268 268 268 268 270 270 271 273 274 272 269 271 273 272 272 274 275 275 276 276 278 280 282 283 285 286 286 287 287 288 288 288 288 288 289 290
264 265 266 267 267 267 267 270 271 272 273 272 270 272 274 273 274 275 276 276 277 278 279 280 283 283 284 286 286 287 287 288 288 288 289 290 290 290
264 263 264 265 266 267 267 269 270 272 273 273 271 274 275 275 276 277 277 277 280 281 281 281 282 283 284 285 285 286 286 287 290 290 289 290 291 290
262 262 263 265 266 267 267 268 270 273 275 274 275 275 276 277 278 278 279 281 282 283 283 282 283 283 283 283 284 286 286 287 289 290 290 290 291 291
260 262 264 267 267 266 266 268 270 273 275 276 278 277 277 279 279 279 278 279 280 283 285 284 283 283 283 284 285 286 287 288 289 291 291 291 291 291
261 263 265 266 267 265 266 269 271 274 275 276 278 279 279 280 280 278 276 276 279 283 286 285 284 284 284 285 285 286 287 289 289 290 291 291 292 293
262 263 264 265 265 266 267 269 272 272 273 275 278 279 281 281 279 278 276 277 279 281 285 287 285 284 285 286 287 287 288 289 289 290 291 291 291 292
263 263 264 266 267 268 270 272 272 272 272 276 277 279 280 278 278 278 278 278 280 280 283 286 286 286 287 288 287 286 287 289 291 292 293 294 293 290
264 265 265 267 268 271 271 271 272 271 272 275 277 278 278 278 278 278 276 278 280 281 280 283 285 287 287 286 286 286 287 287 288 290 291 293 293 292
267 268 268 268 270 271 270 269 271 271 273 275 276 275 277 277 278 279 279 278 280 281 280 281 283 286 287 286 286 286 288 288 288 288 291 293 292 291
268 269 268 269 269 271 270 270 270 271 274 276 277 276 276 277 277 278 279 281 281 280 279 280 281 283 285 286 286 285 287 288 288 290 292 292 291 291
268 270 269 268 269 271 271 270 270 271 274 277 277 277 276 277 276 278 280 281 282 280 280 280 282 284 286 286 286 286 287 287 286 290 293 292 291 289
268 271 271 268 269 271 272 271 271 272 273 275 276 276 276 277 278 279 280 281 282 282 281 280 282 284 286 287 286 286 286 286 286 290 294 292 290 290
269 271 271 269 269 270 271 271 272 272 272 273 274 274 275 278 279 281 282 282 283 283 282 281 282 284 285 287 288 286 286 285 287 290 293 293 293 292
271 271 271 271 272 272 274 274 273 273 273 272 273 274 274 277 279 280 280 281 282 284 283 283 283 283 285 288 290 289 288 287 288 291 293 294 294 292
270 270 269 270 273 274 274 274 274 274 274 273 274 275 275 276 276 277 279 281 282 283 283 284 285 285 286 288 290 289 289 288 289 291 293 295 295 293
269 271 270 271 273 273 273 274 273 272 273 273 275 275 275 275 275 276 279 281 282 283 284 285 286 286 287 288 288 288 288 290 290 292 293 295 296 293
271 272 272 272 272 273 273 272 270 270 272 272 275 275 275 277 277 278 279 280 281 282 284 286 286 286 286 285 284 284 286 289 292 294 295 295 294 292
272 272 272 271 271 271 271 271 272 271 272 274 275 275 275 277 280 282 281 281 280 281 285 286 286 285 284 282 280 280 283 287 292 294 294 293 290 289
271 272 272 272 271 271 272 273 274 273 273 274 275 276 276 278 281 283 283 282 281 281 283 284 283 282 281 281 279 279 283 286 288 291 290 287 283 279
272 273 272 272 271 272 274 275 275 274 273 273 273 276 277 279 281 282 283 284 283 283 282 281 281 280 279 279 278 279 282 285 286 288 286 281 276 271
274 273 273 272 271 272 274 275 274 274 273 273 273 275 276 278 280 281 282 283 283 282 281 279 278 277 277 277 277 279 281 282 281 281 281 276 276 273
Height
5649 5651 5652 5652 5653 5653 5654 5655 5656 5656 5657 5657 5657 5657 5657 5657 5657 5657 5657 5656 5655 5655 5654 5653 5651 5650 5648 5646 5644 5642 5640 5638 5636 5634 5631 5629 5626 5623
5640 5641 5642 5643 5644 5645 5645 5646 5646 5647 5648 5648 5648 5648 5647 5647 5647 5647 5647 5646 5645 5644 5643 5642 5641 5639 5637 5635 5633 5632 5630 5628 5625 5623 5621 5619 5616 5613
5630 5632 5633 5634 5635 5636 5636 5637 5637 5638 5638 5639 5639 5638 5638 5638 5638 5637 5636 5636 5635 5634 5633 5632 5631 5629 5627 5625 5624 5622 5620 5618 5615 5613 5611 5609 5606 5603
5621 5622 5623 5624 5626 5626 5627 5628 5628 5629 5629 5630 5630 5630 5629 5629 5628 5628 5627 5626 5626 5625 5624 5622 5621 5619 5618 5616 5614 5612 5610 5608 5606 5603 5601 5599 5597 5594
5611 5613 5614 5615 5616 5617 5618 5619 5619 5620 5620 5621 5621 5621 5620 5620 5619 5619 5618 5617 5617 5616 5615 5613 5611 5610 5608 5606 5604 5603 5601 5599 5597 5594 5592 5589 5587 5584
5602 5604 5605 5606 5607 5608 5609 5610 5611 5612 5612 5612 5612 5612 5612 5611 5610 5610 5610 5609 5608 5607 5605 5603 5602 5600 5598 5597 5595 5593 5591 5589 5587 5584 5582 5580 5577 5575
5593 5595 5596 5597 5598 5599 5600 5601 5602 5603 5603 5603 5603 5603 5603 5602 5601 5601 5600 5600 5599 5598 5596 5594 5592 5591 5589 5587 5586 5584 5582 5580 5577 5575 5573 5571 5569 5566
5584 5586 5587 5588 5589 5590 5591 5592 5593 5594 5594 5594 5594 5594 5593 5593 5592 5592 5592 5592 5591 5590 5588 5586 5584 5582 5581 5579 5576 5574 5572 5570 5568 5566 5564 5562 5561 5559
5576 5577 5579 5580 5581 5582 5582 5583 5584 5584 5585 5585 5585 5585 5584 5584 5584 5584 5583 5582 5582 5580 5580 5578 5576 5574 5572 5569 5567 5565 5564 5562 5560 5558 5557 5555 5553 5551
5568 5569 5570 5571 5572 5573 5574 5575 5575 5575 5576 5576 5576 5576 5575 5575 5575 5575 5574 5574 5573 5572 5570 5570 5568 5567 5564 5562 5559 5557 5556 5554 5553 5551 5550 5548 5546 5545
5559 5561 5561 5562 5564 5564 5566 5566 5567 5567 5567 5567 5567 5567 5566 5566 5566 5566 5566 5565 5565 5564 5562 5561 5560 5559 5557 5555 5552 5550 5548 5547 5545 5544 5542 5541 5539 5538
5552 5553 5554 5554 5555 5556 5557 5558 5559 5559 5559 5559 5559 5559 5559 5558 5558 5558 5557 5557 5556 5555 5554 5553 5552 5550 5550 5549 5545 5543 5541 5540 5539 5537 5536 5534 5533 5531
5544 5545 5546 5546 5547 5548 5548 5550 5551 5551 5551 5551 5551 5551 5551 5551 5550 5550 5549 5548 5547 5546 5545 5545 5544 5542 5541 5541 5539 5537 5535 5534 5533 5531 5529 5527 5526 5524
5537 5538 5538 5539 5540 5540 5541 5541 5542 5543 5543 5543 5543 5543 5543 5543 5542 5542 5541 5540 5539 5538 5537 5537 5536 5535 5534 5533 5532 5531 5529 5528 5526 5525 5523 5521 5519 5517
5530 5531 5531 5532 5532 5533 5533 5534 5534 5535 5535 5535 5535 5535 5535 5535 5534 5534 5533 5532 5532 5530 5529 5529 5529 5528 5527 5526 5525 5524 5523 5522 5520 5519 5517 5515 5513 5511
5522 5523 5523 5524 5525 5525 5526 5526 5526 5527 5527 5527 5527 5527 5527 5527 5527 5527 5526 5526 5525 5524 5523 5522 5521 5521 5520 5519 5517 5516 5515 5515 5514 5512 5510 5508 5506 5504
5515 5516 5516 5517 5517 5518 5518 5519 5519 5519 5519 5519 5519 5520 5520 5520 5519 5519 5519 5519 5518 5518 5517 5516 5515 5514 5513 5512 5511 5510 5509 5508 5507 5505 5504 5502 5499 5497
5508 5509 5509 5510 5510 5511 5511 5512 5512 5512 5512 5512 5512 5512 5512 5513 5512 5512 5512 5512 5512 5511 5510 5509 5508 5508 5507 5505 5504 5503 5502 5501 5500 5499 5497 5495 5493 5491
5501 5501 5502 5503 5503 5504 5504 5505 5505 5505 5505 5505 5506 5506 5506 5506 5506 5505 5505 5505 5505 5504 5503 5502 5501 5500 5500 5499 5498 5496 5496 5495 5494 5493 5491 5489 5488 5486
5494 5495 5495 5496 5496 5497 5497 5498 5498 5499 5499 5499 5499 5500 5500 5500 5499 5499 5498 5498 5497 5497 5496 5495 5494 5493 5492 5492 5492 5491 5490 5489 5488 5487 5486 5484 5483 5482
5487 5488 5488 5489 5489 5490 5490 5491 5491 5492 5492 5493 5493 5493 5493 5493 5492 5492 5491 5491 5490 5490 5489 5488 5487 5487 5486 5486 5486 5485 5484 5483 5483 5482 5481 5480 5480 5479
5480 5481 5481 5482 5482 5483 5483 5484 5485 5485 5486 5486 5486 5486 5486 5486 5485 5485 5484 5484 5483 5483 5482 5482 5481 5481 5481 5481 5480 5480 5479 5478 5478 5477 5476 5476 5476 5476
5473 5474 5474 5475 5475 5476 5476 5477 5477 5478 5478 5478 5478 5479 5479 5479 5478 5478 5477 5477 5477 5476 5476 5476 5475 5475 5475 5475 5475 5475 5474 5474 5474 5473 5473 5472 5472 5472